Showing default

INTELSAT 601, 21765

Orbit data source: Space-Track

INTELSAT 601, 21765 is a payload satellite owned by INTELSAT (US) in GEO that was launched on Tue, 29 Oct 1991 UTC via an ARIANE 44L launch vehicle from the French Guiana (FRGUI). Payload-class satellites include a variety of spacecraft equipped with specific instruments for various scientific and technological missions. These include communications satellites like Starlink; space stations such as the ISS; scientific satellites like the Hubble; Earth observation satellites from companies like Planet Labs, Umbra, and HawkEye 360; GPS; miniature CubeSats for education and research; and military/defense satellites.

Loading next visibility...
Identifier
21765, 1991-075A
Orbit
GEO
Country
Flag of USUS / ITSO
Related business
Manufacturer
Hughes
Mission
Non-operational Civil Communications
Bus & Motor
HS-389, R-4D-12 X2
Mass
4,260 kg wet, 1,908 kg dry
Launch date (UTC)
1991-10-29 (35 years ago)
Launch vehicle
ARIANE 44L
Launch site
French Guiana (FRGUI)
Object type
Payload
Rocket body
Debris
Shape & HBR
Cyl + 2 Pan, 5.9 m
Radar Cross Section
46.343 m², Large (>1 m²)

Expand to show TLE details & history
Last TLE update: 2 days ago

TLE from 2 days ago
0 INTELSAT 601
1 21765U 91075A   26171.31349104  .00000073  00000-0  00000+0 0  9994
2 21765  13.3911  16.9118 0001591 328.5507 261.2225  0.99588529126401
Epoch: 2026-06-20T07:31Z
TLE epoch observation values (Epoch: 2026-06-20T07:31:25.625Z)
Latitude
-10.20095°
Longitude
-135.4834°
Altitude
35,981.763 km
Speed
3.068 km/s
True Right ascension
16h 23m 36s
True Declination
-10° 11' 27"
Sunlit
Object was in daylight at epoch
Visualization orbit readout
Latitude
Unknown
Longitude
Unknown
Altitude
Unknown
Speed
Unknown
Apparent Right ascension
Unknown
Apparent Declination
Unknown
Sunlit
N/A
Visualization observer readout
Local Sidereal Time
23:07:30
Azimuth
Unknown
Elevation
Unknown
Doppler factor
Unknown
Orbital elements
Apogee altitude
35,986.952 km
Perigee altitude
35,973.474 km
Semi-major axis
42,358.35 km
Eccentricity
0.00016
Inclination
13.3911°
RAAN
16.9118°
Arg. of periapsis
328.5507°
True anomaly
261.20448°
Mean anomaly
261.2225°
Eccentric anomaly
261.21349°
Mean motion
0.24896 °/min
Orbital period
1,446 mins
BSTAR
0
Loading maneuver chart data...
Computing Atmospheric mass density...
Loading historical data...
Loading historical data...
Loading historical data...
Loading historical data...
Loading historical data...
Loading historical data...
Loading historical data...

Documentation

Showing up to 5 results
|